Regional Weather Roundup
Issued by NWS State College, PA

Home | Current Version | Previous Version | Text Only | Print | Product List | Glossary Off
Versions: 1 2 3 4 5 6 7 8 9 10 11 12 13 14 15 16 17 18 19 20 21 22 23 24 25 26 27 28 29 30 31 32 33 34 35 36 37 38 39 40 41 42 43 44 45 46 47 48 49 50

000
ASUS41 KCTP 281410
RWRCTP

REGIONAL WEATHER ROUNDUP
NATIONAL WEATHER SERVICE STATE COLLEGE PA
900 AM EST SUN DEC 28 2014

Note: "fair" indicates few or no clouds below 12,000 feet with no
significant weather and/or obstructions to visibility.

* = STATION THAT DOES NOT REPORT PRECIPITATION /E.G. RAIN...SNOW...ETC/
    THUNDER OR FOG.

PAZ002>004-007>009-013>016-020>023-029>032-281500-
WESTERN PENNSYLVANIA

CITY           SKY/WX    TMP DP  RH WIND       PRES   REMARKS
ERIE           CLOUDY    38  31  76 NW9       30.04R
MEADVILLE      CLOUDY    35  32  88 W6        30.01R FOG
FRANKLIN*      CLOUDY    34  30  86 NW6       30.02R
NEW CASTLE       N/A     35  34  96 CALM      30.06R
BEAVER COUNTY  DRIZZLE   36  34  93 NW6       30.03
BUTLER*        CLOUDY    36  34  93 W7        30.04R
PITTSBURGH INT LGT RAIN  38  36  92 N14       30.03R FOG
PITTSBURGH     CLOUDY    39  35  86 N14G22    30.01R
INDIANA*       PTSUNNY   39  37  93 NW14G22   30.02S
LATROBE        LGT RAIN  41  41 100 NW12      30.02R FOG
WASHINGTON CO* NOT AVBL
$$

PAZ004>006-010>012-017>019-024>028-033>037-041-042-045-046-049>053-281500-
CENTRAL PENNSYLVANIA

CITY           SKY/WX    TMP DP  RH WIND       PRES   REMARKS
BRADFORD       LGT SNOW  33  30  88 W8        29.95R FOG
DUBOIS         CLOUDY    36  34  92 W9        29.96R
CLEARFIELD     CLOUDY    40  36  86 NW12      29.96R
JOHNSTOWN      LGT RAIN  42  41  96 W13       29.93R VSB 1/2
ALTOONA        CLOUDY    47  42  83 W9        29.95S
STATE COLLEGE  CLOUDY    45  45 100 CALM      29.93S
WILLIAMSPORT   CLOUDY    43  40  89 CALM      29.93R
SELINSGROVE    CLOUDY    44  41  89 CALM      29.95R
FT INDIANTOWN  CLOUDY    42  39  90 SW5       29.95R
CAPITAL CITY   CLOUDY    45  40  82 VRB3      29.95R
HARRISBURG     CLOUDY    42  39  89 CALM      29.96R
YORK           CLOUDY    45  39  79 CALM      29.96R
$$

PAZ038>040-043-044-047-048-054-055-060>062-067>071-281500-
EASTERN PENNSYLVANIA

CITY           SKY/WX    TMP DP  RH WIND       PRES   REMARKS
SCRANTON       CLOUDY    45  37  73 SW6       29.90R
MOUNT POCONO   CLOUDY    42  37  82 W14       29.86R
ALLENTOWN      CLOUDY    43  39  86 SW6       29.92R
QUAKERTOWN*    CLOUDY    43  41  93 CALM      29.92R
READING        CLOUDY    44  41  89 CALM      29.93R FOG
LANCASTER      CLOUDY    42  40  92 W5        29.94R FOG
COATESVILLE    CLOUDY    45  41  87 CALM      29.94R
POTTSTOWN      LGT RAIN  43  41  93 CALM      29.95R
BLUE BELL      CLOUDY    45  41  87 CALM      29.92R
DOYLESTOWN     LGT RAIN  43  40  89 W3        29.91R
WILLOW GROVE   NOT AVBL
NORTH PHILA    CLOUDY    48  38  68 SW7       29.94F
PHILADELPHIA   LGT RAIN  44  39  82 SW7       29.96R
$$



USA.gov is the U.S. government's official web portal to all federal, state and local government web resources and services.